Regional Weather Roundup
Issued by NWS

Home | Current Version | Previous Version | Text Only | Print | Product List | Glossary On
Versions: 1 2 3 4 5 6 7 8 9 10 11 12 13 14 15 16 17 18 19 20 21 22 23 24 25 26 27 28 29 30 31 32 33 34 35 36 37 38 39 40 41 42 43 44 45 46 47 48 49 50
000
ASCA44 KEWX 020920
RWRMX

LATIN AMERICA AND CARIBBEAN REGIONAL WEATHER ROUNDUP
NATIONAL WEATHER SERVICE AUSTIN/SAN ANTONIO TX
400 AM CDT THU JUL 02 2015

NOTE: "FAIR" INDICATED FEW OR NO CLOUDS BELOW 12,000 FEET WITH NO
SIGNIFICANT WEATHER AND/OR OBSTRUCTIONS TO VISIBILITY.

BAJA CALIFORNIA

CITY           SKY/WX    TMP DP  RH WIND       PRES   REMARKS
TIJUANA        CLOUDY    68  64  88 CALM      29.98S FOG

NORTHWESTERN MEXICO

CITY           SKY/WX    TMP DP  RH WIND       PRES   REMARKS

NORTHEASTERN MEXICO

CITY           SKY/WX    TMP DP  RH WIND       PRES   REMARKS
MONTERREY      CLOUDY    68  63  83 CALM      29.98S

WESTERN MEXICO

CITY           SKY/WX    TMP DP  RH WIND       PRES   REMARKS
GUADALAJARA    LGT RAIN  61  59  94 CALM      30.20S
MAZATLAN       MOCLDY    75  70  83 SE7       29.84F
P. VALLARTA    PTCLDY    79  77  94 NE6       29.87F
ZACATECAS        N/A    N/A N/A N/A MISG        N/A

CENTRAL MEXICO

CITY           SKY/WX    TMP DP  RH WIND       PRES   REMARKS
MEXICO CITY    CLOUDY    59  55  88 E6        30.31F
QUERETARO      MOCLDY    61  59  94 CALM      30.29F
S. LUIS POTOSI MOCLDY    59  59 100 CALM      30.22S
TOLUCA         MOCLDY    54  52  94 CALM      30.36F

SOUTHERN MEXICO

CITY           SKY/WX    TMP DP  RH WIND       PRES   REMARKS
ACAPULCO       PTCLDY    82  79  89 W3        29.82F HX  93
OAXACA         CLOUDY    64  63  94 CALM      30.19S
VERACRUZ         N/A    N/A N/A N/A MISG        N/A

YUCATAN PENINSULA

CITY           SKY/WX    TMP DP  RH WIND       PRES   REMARKS
CANCUN         PTCLDY    81  79  94 NE6       30.00F
COZUMEL        MOCLDY    73  73 100 CALM      30.00
MERIDA         MOCLDY    79  72  78 E9        29.98F
TAPACHULA      MOCLDY    79  75  89 CALM      29.83F
VILLAHERMOSA   PTCLDY    79  70  73 E12       29.90

CENTRAL AMERICA

CITY           SKY/WX    TMP DP  RH WIND       PRES   REMARKS
MANAGUA        MOSUNNY   77  72  83 E5        29.80S

CARIBBEAN

CITY           SKY/WX    TMP DP  RH WIND       PRES   REMARKS
ARUBA          PTCLDY    81  75  83 E18G31    29.92R
KINGSTON       PTCLDY    81  73  78 NW8       29.94R
NASSAU         MOCLDY    81  75  83 SE7       30.11R
SAN JUAN       PTCLDY    81  73  78 E8        30.07S
SANTO DOMINGO  PTCLDY    75  73  94 N6        30.03S
ST. CROIX      CLOUDY    79  72  78 E14       30.07R
ST. MAARTEN    PTCLDY    81  70  69 E12       30.06R
ST. THOMAS     CLOUDY    81  73  78 E6        30.06S

$$



USA.gov is the U.S. government's official web portal to all federal, state and local government web resources and services.